{"data":{"norad_id":61548,"intl_designator":"2024-184S","name":"STARLINK-32424","alt_names":[],"object_type":"PAYLOAD","status":"ACTIVE","operator":null,"country":"US","launch_date":"2024-10-15","launch_site_code":"AFWTR","launch_vehicle":null,"mission":null,"orbit_class":"UNKNOWN","rcs_meters":null,"size_class":null,"mass_kg":null,"dimensions":null,"purposes":["comms"],"wikipedia_slug":null,"has_3d_model":false,"image_url":null,"decayed_at":null,"tle_current":{"epoch":"2026-09-21T00:57:03.002976Z","epoch_age_seconds":145510,"freshness":"FRESH","line1":"1 61548U 24184S   26264.03961809 -.00000096  00000+0  83150-5 0  9996","line2":"2 61548  53.1595 183.1799 0001730  72.2609 287.8583 15.34382513108464","mean_motion":15.34382513,"eccentricity":0.000173,"inclination_deg":53.1595,"raan_deg":183.1799,"arg_perigee_deg":72.2609,"mean_anomaly_deg":287.8583,"bstar":8.315e-6,"rev_number":10846,"period_min":93.848827642368,"perigee_km":461.57174139662,"apogee_km":463.93869010327,"semimajor_km":6840.8922157499,"source":"CELESTRAK","updated_at":"2026-09-22T09:00:49.368017Z"}}}